This demonstration page uses our WeatherBlox Daily Observations layout. Learn more.

Left ArrowRight Arrow

34.74481, -87.66753

Hourly Observations for April 10, 2021

Temp ( °F °C ) Dew Point ( °F °C ) Humidity (%) Winds ( mph kmh ) Pressure ( in mb ) Visibility ( mi km ) Precip ( " mm )
12:17 am 00:17 Cloudy with Nearby Thunderstorms 65 18.3 60 15.6 84 84 W 5 7 29.86 1011 6 10 0.06 1.52
12:36 am 00:36 Cloudy with Nearby Thunderstorms 65 18.3 60 15.6 84 84 WNW 6 9 29.84 1011 9 14 0.08 2.03
12:46 am 00:46 Cloudy with Thunderstorms 65 18.3 60 15.6 84 84 WSW 6 9 29.85 1011 6 10 0.10 2.54
12:53 am 00:53 Cloudy with Strong Thunderstorms 65 18.3 60 15.6 84 84 SW 5 7 29.83 1010 4 6 0.13 3.30
1:01 am 01:01 Cloudy with Rain 65 18.3 59 15 81 81 SW 8 13 29.84 1011 4 6 0.04 1.02
1:21 am 01:21 Cloudy with Nearby Thunderstorms 64 17.8 58 14.4 81 81 SW 10 17 29.83 1010 5 8 0.12 3.05
1:53 am 01:53 Cloudy with Light Rain 63 17.2 55 12.8 76 76 SSE 10 17 29.78 1008 10 16 0.19 4.83
2:03 am 02:03 Cloudy with Nearby Thunderstorms 63 17.2 55 12.8 76 76 SSE 14 22 29.78 1009 10 16 0.02 0.51
2:18 am 02:18 Cloudy with Light Rain 63 17.2 54 12.2 73 73 SSE 18 30 29.75 1008 9 14 0.04 1.02
2:53 am 02:53 Cloudy with Light Rain 64 17.8 53 11.7 68 68 SSE 15 24 29.69 1005 10 16 0.06 1.52
3:53 am 03:53 Partly Cloudy 63 17.2 54 12.2 73 73 SSE 15 24 29.64 1004 10 16 0.01 0.25
4:53 am 04:53 Partly Cloudy 63 17.2 56 13.3 78 78 SSE 15 24 29.59 1002 10 16 0.00 0.00
5:53 am 05:53 Cloudy with Light Rain 62 16.7 56 13.3 80 80 WNW 9 15 29.66 1005 10 16 0.02 0.51
6:53 am 06:53 Cloudy 61 16.1 56 13.3 84 84 SSE 6 9 29.65 1004 10 16 0.01 0.25
7:17 am 07:17 Mostly Cloudy 61 16.1 56 13.3 84 84 SSE 7 11 29.66 1004 10 16 0.00 0.00
7:53 am 07:53 Cloudy 62 16.7 56 13.3 80 80 SSE 9 15 29.64 1004 10 16 0.00 0.00
8:19 am 08:19 Partly Cloudy 62 16.7 56 13.3 80 80 SSE 9 15 29.62 1003 10 16 0.00 0.00
8:53 am 08:53 Mostly Sunny 63 17.2 57 13.9 81 81 S 8 13 29.62 1003 10 16 0.00 0.00
9:14 am 09:14 Cloudy 64 17.8 56 13.3 75 75 S 9 15 29.64 1004 10 16 0.00 0.00
9:53 am 09:53 Cloudy 65 18.3 56 13.3 73 73 SSW 8 13 29.65 1004 10 16 0.00 0.00
10:53 am 10:53 Cloudy 66 18.9 56 13.3 70 70 S 13 20 29.66 1004 10 16 0.00 0.00
11:53 am 11:53 Cloudy 67 19.4 57 13.9 71 71 WSW 12 19 29.66 1004 10 16 0.00 0.00
12:23 pm 12:23 Cloudy 68 20 56 13.3 65 65 SW 17 28 29.65 1004 10 16 0.00 0.00
12:37 pm 12:37 Cloudy 70 21.1 57 13.9 64 64 WSW 14 22 29.64 1004 10 16 0.00 0.00
12:53 pm 12:53 Cloudy 69 20.6 57 13.9 66 66 SW 16 26 29.63 1003 10 16 0.00 0.00
1:53 pm 13:53 Mostly Cloudy 73 22.8 57 13.9 57 57 WSW 18 30 29.60 1003 10 16 0.00 0.00
2:53 pm 14:53 Partly Cloudy 74 23.3 56 13.3 54 54 SW 14 22 29.60 1003 10 16 0.00 0.00
3:53 pm 15:53 Mostly Cloudy 73 22.8 55 12.8 53 53 WSW 14 22 29.60 1003 10 16 0.00 0.00
4:53 pm 16:53 Partly Cloudy 74 23.3 54 12.2 50 50 W 20 31 29.60 1002 10 16 0.00 0.00
5:53 pm 17:53 Partly Cloudy 73 22.8 53 11.7 50 50 SW 15 24 29.59 1002 10 16 0.00 0.00
6:53 pm 18:53 Mostly Sunny 70 21.1 51 10.6 51 51 WSW 14 22 29.60 1003 10 16 0.00 0.00
7:53 pm 19:53 Clear 67 19.4 51 10.6 57 57 WSW 12 19 29.62 1003 10 16 0.00 0.00
8:53 pm 20:53 Mostly Clear 65 18.3 51 10.6 61 61 WSW 10 17 29.64 1004 10 16 0.00 0.00
9:53 pm 21:53 Mostly Cloudy 64 17.8 51 10.6 63 63 W 8 13 29.66 1004 10 16 0.00 0.00
10:53 pm 22:53 Mostly Clear 63 17.2 46 7.8 54 54 W 10 17 29.67 1005 10 16 0.00 0.00
11:53 pm 23:53 Clear 60 15.6 45 7.2 58 58 WNW 10 17 29.67 1005 10 16 0.00 0.00

Powered by AerisWeather